Time,TemperatureF,DewpointF,PressureIn,WindDirection,WindDirectionDegrees,WindSpeedMPH,WindSpeedGustMPH,Humidity,HourlyPrecipIn,Conditions,Clouds,dailyrainin,SoftwareType,DateUTC
2013-11-01 00:01:00,59.9,57.6,29.56,SSE,165,10.0,13.0,92,0.00,,,0.11,Wunderground v.1.15,2013-11-01 04:01:00,
2013-11-01 00:03:00,60.1,57.8,29.56,South,182,11.0,17.0,92,0.00,,,0.11,Wunderground v.1.15,2013-11-01 04:03:00,
2013-11-01 00:04:00,60.1,57.8,29.56,South,182,7.0,17.0,92,0.00,,,0.11,Wunderground v.1.15,2013-11-01 04:04:00,
2013-11-01 00:06:00,60.1,57.8,29.56,SSE,160,11.0,17.0,92,0.00,,,0.11,Wunderground v.1.15,2013-11-01 04:06:00,
2013-11-01 00:07:00,60.1,57.8,29.56,South,179,12.0,17.0,92,0.00,,,0.11,Wunderground v.1.15,2013-11-01 04:07:00,
2013-11-01 00:11:00,60.1,57.8,29.56,South,177,8.0,13.0,92,0.00,,,0.11,Wunderground v.1.15,2013-11-01 04:11:00,
2013-11-01 00:17:00,59.9,57.6,29.55,SSE,157,6.0,13.0,92,0.00,,,0.11,Wunderground v.1.15,2013-11-01 04:17:00,
2013-11-01 00:22:00,59.9,57.9,29.55,South,182,12.0,17.0,93,0.00,,,0.11,Wunderground v.1.15,2013-11-01 04:22:00,
2013-11-01 00:28:00,60.2,57.9,29.55,South,171,5.0,17.0,92,0.00,,,0.11,Wunderground v.1.15,2013-11-01 04:28:00,
2013-11-01 00:34:00,60.4,58.1,29.54,South,171,14.0,14.0,92,0.00,,,0.11,Wunderground v.1.15,2013-11-01 04:34:00,
2013-11-01 00:39:00,60.4,57.8,29.54,South,182,8.0,15.0,91,0.00,,,0.11,Wunderground v.1.15,2013-11-01 04:39:00,
2013-11-01 00:45:00,60.4,57.8,29.54,South,170,11.0,16.0,91,0.00,,,0.11,Wunderground v.1.15,2013-11-01 04:45:00,
2013-11-01 00:50:00,60.2,57.9,29.54,SSE,165,10.0,11.0,92,0.00,,,0.11,Wunderground v.1.15,2013-11-01 04:50:00,
2013-11-01 00:55:00,60.2,57.9,29.54,South,178,12.0,12.0,92,0.00,,,0.11,Wunderground v.1.15,2013-11-01 04:55:00,
2013-11-01 01:01:00,60.2,57.9,29.52,SSE,161,12.0,12.0,92,0.00,,,0.11,Wunderground v.1.15,2013-11-01 05:01:00,
2013-11-01 01:07:00,60.4,58.1,29.52,SSE,150,11.0,13.0,92,0.00,,,0.11,Wunderground v.1.15,2013-11-01 05:07:00,
2013-11-01 01:12:00,60.4,58.1,29.52,South,182,18.0,18.0,92,0.00,,,0.12,Wunderground v.1.15,2013-11-01 05:12:00,
2013-11-01 01:18:00,60.5,57.9,29.51,SSE,157,11.0,18.0,91,0.00,,,0.12,Wunderground v.1.15,2013-11-01 05:18:00,
2013-11-01 01:24:00,60.7,58.1,29.51,South,169,7.0,16.0,91,0.00,,,0.12,Wunderground v.1.15,2013-11-01 05:24:00,
2013-11-01 01:30:00,60.7,57.7,29.50,SSE,164,10.0,12.0,90,0.00,,,0.12,Wunderground v.1.15,2013-11-01 05:30:00,
2013-11-01 01:36:00,60.7,57.7,29.50,South,178,12.0,26.0,90,0.00,,,0.12,Wunderground v.1.15,2013-11-01 05:36:00,
2013-11-01 01:41:00,60.9,57.9,29.50,SSE,150,12.0,14.0,90,0.00,,,0.12,Wunderground v.1.15,2013-11-01 05:41:00,
2013-11-01 01:47:00,60.9,57.9,29.48,SSE,168,10.0,15.0,90,0.00,,,0.12,Wunderground v.1.15,2013-11-01 05:47:00,
2013-11-01 01:49:00,60.9,57.6,29.48,South,175,8.0,15.0,89,0.00,,,0.12,Wunderground v.1.15,2013-11-01 05:49:00,
2013-11-01 01:55:00,60.9,57.6,29.48,SSE,166,13.0,16.0,89,0.00,,,0.12,Wunderground v.1.15,2013-11-01 05:55:00,
2013-11-01 02:00:00,60.9,57.3,29.46,SSE,164,14.0,14.0,88,0.00,,,0.12,Wunderground v.1.15,2013-11-01 06:00:00,
2013-11-01 02:05:00,61.0,57.4,29.46,South,180,12.0,22.0,88,0.00,,,0.12,Wunderground v.1.15,2013-11-01 06:05:00,
2013-11-01 02:10:00,61.0,57.1,29.46,South,188,18.0,18.0,87,0.00,,,0.12,Wunderground v.1.15,2013-11-01 06:10:00,
2013-11-01 02:15:00,61.2,57.3,29.45,South,169,13.0,25.0,87,0.00,,,0.12,Wunderground v.1.15,2013-11-01 06:15:00,
2013-11-01 02:20:00,61.2,57.3,29.45,South,177,10.0,17.0,87,0.00,,,0.12,Wunderground v.1.15,2013-11-01 06:20:00,
2013-11-01 02:25:00,61.0,57.4,29.45,South,186,16.0,23.0,88,0.00,,,0.12,Wunderground v.1.15,2013-11-01 06:25:00,
2013-11-01 02:30:00,61.0,57.4,29.45,SSE,157,12.0,14.0,88,0.00,,,0.12,Wunderground v.1.15,2013-11-01 06:30:00,
2013-11-01 02:35:00,60.9,57.3,29.45,SSW,193,12.0,23.0,88,0.00,,,0.12,Wunderground v.1.15,2013-11-01 06:35:00,
2013-11-01 02:40:00,60.7,57.4,29.45,SSE,165,14.0,18.0,89,0.00,,,0.12,Wunderground v.1.15,2013-11-01 06:40:00,
2013-11-01 02:45:00,60.7,57.7,29.44,South,174,11.0,21.0,90,0.00,,,0.12,Wunderground v.1.15,2013-11-01 06:45:00,
2013-11-01 02:50:00,60.7,57.4,29.44,South,178,7.0,16.0,89,0.00,,,0.12,Wunderground v.1.15,2013-11-01 06:50:00,
2013-11-01 02:55:00,60.7,57.7,29.44,South,184,15.0,22.0,90,0.00,,,0.12,Wunderground v.1.15,2013-11-01 06:55:00,
2013-11-01 03:00:00,60.5,57.6,29.44,South,177,16.0,16.0,90,0.00,,,0.12,Wunderground v.1.15,2013-11-01 07:00:00,
2013-11-01 03:05:00,60.7,57.7,29.44,South,187,15.0,20.0,90,0.00,,,0.12,Wunderground v.1.15,2013-11-01 07:05:00,
2013-11-01 03:10:00,60.5,57.6,29.44,South,181,10.0,13.0,90,0.00,,,0.12,Wunderground v.1.15,2013-11-01 07:10:00,
2013-11-01 03:15:00,60.5,57.6,29.42,South,180,20.0,25.0,90,0.00,,,0.12,Wunderground v.1.15,2013-11-01 07:15:00,
2013-11-01 03:20:00,60.5,57.6,29.42,South,178,13.0,17.0,90,0.00,,,0.12,Wunderground v.1.15,2013-11-01 07:20:00,
2013-11-01 03:26:00,60.5,57.6,29.42,SSE,168,11.0,28.0,90,0.00,,,0.13,Wunderground v.1.15,2013-11-01 07:26:00,
2013-11-01 03:31:00,60.4,57.5,29.41,South,187,10.0,14.0,90,0.00,,,0.13,Wunderground v.1.15,2013-11-01 07:31:00,
2013-11-01 03:36:00,60.5,57.6,29.41,South,173,14.0,26.0,90,0.00,,,0.13,Wunderground v.1.15,2013-11-01 07:36:00,
2013-11-01 03:41:00,60.4,57.5,29.41,SSW,196,14.0,18.0,90,0.00,,,0.13,Wunderground v.1.15,2013-11-01 07:41:00,
2013-11-01 03:46:00,60.4,57.5,29.40,SSE,167,12.0,24.0,90,0.04,,,0.14,Wunderground v.1.15,2013-11-01 07:46:00,
2013-11-01 03:51:00,60.2,57.3,29.40,South,173,6.0,21.0,90,0.04,,,0.14,Wunderground v.1.15,2013-11-01 07:51:00,
2013-11-01 03:56:00,60.2,57.3,29.40,South,171,14.0,27.0,90,0.05,,,0.15,Wunderground v.1.15,2013-11-01 07:56:00,
2013-11-01 04:01:00,60.2,57.3,29.39,SE,141,22.0,22.0,90,0.05,,,0.15,Wunderground v.1.15,2013-11-01 08:01:00,
2013-11-01 04:06:00,60.1,57.5,29.39,SSE,155,17.0,26.0,91,0.05,,,0.16,Wunderground v.1.15,2013-11-01 08:06:00,
2013-11-01 04:11:00,60.1,57.5,29.39,SSE,164,20.0,25.0,91,0.05,,,0.16,Wunderground v.1.15,2013-11-01 08:11:00,
2013-11-01 04:16:00,60.1,57.5,29.38,South,173,12.0,27.0,91,0.05,,,0.16,Wunderground v.1.15,2013-11-01 08:16:00,
2013-11-01 04:22:00,59.9,57.3,29.38,South,175,10.0,22.0,91,0.05,,,0.17,Wunderground v.1.15,2013-11-01 08:22:00,
2013-11-01 04:27:00,59.9,57.3,29.38,South,180,12.0,31.0,91,0.05,,,0.17,Wunderground v.1.15,2013-11-01 08:27:00,
2013-11-01 04:32:00,59.9,57.3,29.37,SSE,158,12.0,22.0,91,0.05,,,0.17,Wunderground v.1.15,2013-11-01 08:32:00,
2013-11-01 04:37:00,59.9,57.3,29.37,South,184,18.0,27.0,91,0.00,,,0.17,Wunderground v.1.15,2013-11-01 08:37:00,
2013-11-01 04:42:00,59.9,57.3,29.37,SSE,165,10.0,19.0,91,0.00,,,0.18,Wunderground v.1.15,2013-11-01 08:42:00,
2013-11-01 04:47:00,59.9,57.6,29.37,South,185,14.0,22.0,92,0.00,,,0.18,Wunderground v.1.15,2013-11-01 08:47:00,
2013-11-01 04:52:00,59.9,57.6,29.37,South,169,14.0,22.0,92,0.05,,,0.19,Wunderground v.1.15,2013-11-01 08:52:00,
2013-11-01 04:57:00,59.9,57.6,29.37,South,180,11.0,22.0,92,0.05,,,0.19,Wunderground v.1.15,2013-11-01 08:57:00,
2013-11-01 05:02:00,59.9,57.6,29.36,South,169,11.0,18.0,92,0.05,,,0.19,Wunderground v.1.15,2013-11-01 09:02:00,
2013-11-01 05:07:00,59.9,57.9,29.36,South,179,10.0,25.0,93,0.04,,,0.20,Wunderground v.1.15,2013-11-01 09:07:00,
2013-11-01 05:12:00,59.9,57.9,29.36,South,190,15.0,28.0,93,0.04,,,0.20,Wunderground v.1.15,2013-11-01 09:12:00,
2013-11-01 05:17:00,60.1,58.1,29.36,South,190,11.0,28.0,93,0.04,,,0.20,Wunderground v.1.15,2013-11-01 09:17:00,
2013-11-01 05:22:00,60.1,58.1,29.36,South,184,12.0,19.0,93,0.00,,,0.20,Wunderground v.1.15,2013-11-01 09:22:00,
2013-11-01 05:27:00,60.1,58.1,29.36,South,182,13.0,24.0,93,0.00,,,0.21,Wunderground v.1.15,2013-11-01 09:27:00,
2013-11-01 05:32:00,60.2,58.2,29.34,South,171,20.0,22.0,93,0.00,,,0.21,Wunderground v.1.15,2013-11-01 09:32:00,
2013-11-01 05:37:00,60.4,58.1,29.34,South,190,10.0,26.0,92,0.00,,,0.21,Wunderground v.1.15,2013-11-01 09:37:00,
2013-11-01 05:42:00,60.4,58.1,29.34,South,189,23.0,24.0,92,0.00,,,0.21,Wunderground v.1.15,2013-11-01 09:42:00,
2013-11-01 05:47:00,60.5,58.2,29.33,South,177,18.0,27.0,92,0.00,,,0.00,Wunderground v.1.15,2013-11-01 09:47:00,
2013-11-01 05:52:00,60.5,58.2,29.33,South,178,21.0,25.0,92,0.00,,,0.01,Wunderground v.1.15,2013-11-01 09:52:00,
2013-11-01 05:57:00,60.7,58.1,29.33,SSE,153,23.0,27.0,91,0.00,,,0.01,Wunderground v.1.15,2013-11-01 09:57:00,
2013-11-01 06:02:00,60.9,58.3,29.33,SSE,153,18.0,29.0,91,0.00,,,0.01,Wunderground v.1.15,2013-11-01 10:02:00,
2013-11-01 06:07:00,60.9,58.3,29.33,South,188,24.0,29.0,91,0.00,,,0.01,Wunderground v.1.15,2013-11-01 10:07:00,
2013-11-01 06:12:00,60.7,58.4,29.33,South,170,13.0,21.0,92,0.00,,,0.01,Wunderground v.1.15,2013-11-01 10:12:00,
2013-11-01 06:18:00,60.7,58.4,29.32,SSW,202,24.0,24.0,92,0.00,,,0.02,Wunderground v.1.15,2013-11-01 10:18:00,
2013-11-01 06:23:00,60.9,58.6,29.32,South,172,10.0,22.0,92,0.00,,,0.02,Wunderground v.1.15,2013-11-01 10:23:00,
2013-11-01 06:28:00,60.7,58.4,29.33,South,171,11.0,22.0,92,0.00,,,0.02,Wunderground v.1.15,2013-11-01 10:28:00,
2013-11-01 06:33:00,60.7,58.4,29.33,South,182,14.0,17.0,92,0.00,,,0.02,Wunderground v.1.15,2013-11-01 10:33:00,
2013-11-01 06:38:00,60.7,58.4,29.33,SSE,167,9.0,22.0,92,0.00,,,0.02,Wunderground v.1.15,2013-11-01 10:38:00,
2013-11-01 06:43:00,60.7,58.7,29.31,South,178,12.0,24.0,93,0.00,,,0.03,Wunderground v.1.15,2013-11-01 10:43:00,
2013-11-01 06:48:00,60.9,58.6,29.31,South,175,11.0,24.0,92,0.00,,,0.03,Wunderground v.1.15,2013-11-01 10:48:00,
2013-11-01 06:53:00,61.0,58.7,29.31,SSW,192,19.0,30.0,92,0.00,,,0.03,Wunderground v.1.15,2013-11-01 10:53:00,
2013-11-01 06:58:00,61.0,58.7,29.31,South,169,10.0,30.0,92,0.00,,,0.03,Wunderground v.1.15,2013-11-01 10:58:00,
2013-11-01 07:03:00,61.3,58.7,29.31,SSE,163,11.0,24.0,91,0.00,,,0.03,Wunderground v.1.15,2013-11-01 11:03:00,
2013-11-01 07:08:00,61.3,58.7,29.31,South,181,8.0,24.0,91,0.00,,,0.03,Wunderground v.1.15,2013-11-01 11:08:00,
2013-11-01 07:13:00,61.3,58.7,29.30,SSE,147,15.0,22.0,91,0.00,,,0.03,Wunderground v.1.15,2013-11-01 11:13:00,
2013-11-01 07:18:00,61.5,58.8,29.30,South,181,15.0,25.0,91,0.00,,,0.03,Wunderground v.1.15,2013-11-01 11:18:00,
2013-11-01 07:24:00,61.6,58.6,29.30,South,180,9.0,22.0,90,0.00,,,0.03,Wunderground v.1.15,2013-11-01 11:24:00,
2013-11-01 07:29:00,61.6,58.6,29.30,South,190,13.0,27.0,90,0.00,,,0.03,Wunderground v.1.15,2013-11-01 11:29:00,
2013-11-01 07:34:00,61.5,58.8,29.30,South,179,6.0,23.0,91,0.00,,,0.03,Wunderground v.1.15,2013-11-01 11:34:00,
2013-11-01 07:38:00,61.5,59.2,29.30,SSW,194,15.0,23.0,92,0.00,,,0.04,Wunderground v.1.15,2013-11-01 11:38:00,
2013-11-01 07:43:00,61.5,59.2,29.29,South,181,10.0,23.0,92,0.00,,,0.04,Wunderground v.1.15,2013-11-01 11:43:00,
2013-11-01 07:48:00,61.5,59.2,29.29,South,173,10.0,23.0,92,0.00,,,0.04,Wunderground v.1.15,2013-11-01 11:48:00,
2013-11-01 07:53:00,61.6,59.3,29.29,South,184,10.0,21.0,92,0.00,,,0.04,Wunderground v.1.15,2013-11-01 11:53:00,
2013-11-01 07:59:00,61.6,59.6,29.28,South,180,16.0,26.0,93,0.00,,,0.04,Wunderground v.1.15,2013-11-01 11:59:00,
2013-11-01 08:04:00,61.6,59.6,29.28,South,181,6.0,16.0,93,0.00,,,0.04,Wunderground v.1.15,2013-11-01 12:04:00,
2013-11-01 08:09:00,61.8,59.8,29.28,South,169,9.0,19.0,93,0.00,,,0.04,Wunderground v.1.15,2013-11-01 12:09:00,
2013-11-01 08:14:00,61.8,59.8,29.28,South,184,11.0,24.0,93,0.00,,,0.04,Wunderground v.1.15,2013-11-01 12:14:00,
2013-11-01 08:19:00,62.0,60.0,29.28,South,178,9.0,24.0,93,0.00,,,0.04,Wunderground v.1.15,2013-11-01 12:19:00,
2013-11-01 08:24:00,62.1,60.1,29.28,South,181,11.0,21.0,93,0.00,,,0.04,Wunderground v.1.15,2013-11-01 12:24:00,
2013-11-01 08:29:00,62.1,60.1,29.28,South,173,18.0,24.0,93,0.00,,,0.04,Wunderground v.1.15,2013-11-01 12:29:00,
2013-11-01 08:34:00,62.3,60.2,29.28,South,171,13.0,20.0,93,0.00,,,0.04,Wunderground v.1.15,2013-11-01 12:34:00,
2013-11-01 08:39:00,62.6,60.2,29.28,SSE,163,10.0,27.0,92,0.00,,,0.04,Wunderground v.1.15,2013-11-01 12:39:00,
2013-11-01 08:44:00,62.7,60.3,29.27,SSE,164,6.0,26.0,92,0.00,,,0.04,Wunderground v.1.15,2013-11-01 12:44:00,
2013-11-01 08:49:00,62.7,60.3,29.27,SSE,157,9.0,26.0,92,0.00,,,0.04,Wunderground v.1.15,2013-11-01 12:49:00,
2013-11-01 08:54:00,62.9,60.2,29.27,SSE,160,18.0,26.0,91,0.00,,,0.04,Wunderground v.1.15,2013-11-01 12:54:00,
2013-11-01 08:59:00,63.1,60.4,29.28,South,184,14.0,26.0,91,0.00,,,0.04,Wunderground v.1.15,2013-11-01 12:59:00,
2013-11-01 09:04:00,63.2,60.5,29.28,SSE,165,19.0,25.0,91,0.00,,,0.04,Wunderground v.1.15,2013-11-01 13:04:00,
2013-11-01 09:09:00,63.2,60.5,29.28,South,181,12.0,25.0,91,0.00,,,0.04,Wunderground v.1.15,2013-11-01 13:09:00,
2013-11-01 09:14:00,63.1,60.7,29.29,SSW,193,13.0,23.0,92,0.00,,,0.05,Wunderground v.1.15,2013-11-01 13:14:00,
2013-11-01 09:19:00,63.1,60.7,29.29,SSW,204,9.0,23.0,92,0.36,,,0.09,Wunderground v.1.15,2013-11-01 13:19:00,
2013-11-01 09:24:00,63.2,60.8,29.29,South,177,15.0,25.0,92,0.10,,,0.09,Wunderground v.1.15,2013-11-01 13:24:00,
2013-11-01 09:29:00,63.1,60.7,29.30,SSE,165,20.0,27.0,92,0.07,,,0.10,Wunderground v.1.15,2013-11-01 13:29:00,
2013-11-01 09:34:00,63.1,61.0,29.30,South,188,16.0,24.0,93,0.07,,,0.10,Wunderground v.1.15,2013-11-01 13:34:00,
2013-11-01 09:39:00,63.2,60.8,29.30,South,186,13.0,27.0,92,0.05,,,0.10,Wunderground v.1.15,2013-11-01 13:39:00,
2013-11-01 09:44:00,63.2,60.8,29.27,SSE,155,12.0,24.0,92,0.00,,,0.10,Wunderground v.1.15,2013-11-01 13:44:00,
2013-11-01 09:49:00,63.4,61.0,29.27,South,181,12.0,24.0,92,0.00,,,0.10,Wunderground v.1.15,2013-11-01 13:49:00,
2013-11-01 09:54:00,63.5,61.1,29.27,SSE,157,10.0,21.0,92,0.00,,,0.10,Wunderground v.1.15,2013-11-01 13:54:00,
2013-11-01 09:59:00,63.7,61.0,29.25,South,175,12.0,21.0,91,0.00,,,0.10,Wunderground v.1.15,2013-11-01 13:59:00,
2013-11-01 10:04:00,63.9,60.9,29.25,SSE,167,13.0,18.0,90,0.00,,,0.10,Wunderground v.1.15,2013-11-01 14:04:00,
2013-11-01 10:10:00,64.0,60.7,29.25,SSE,150,17.0,17.0,89,0.00,,,0.10,Wunderground v.1.15,2013-11-01 14:10:00,
2013-11-01 10:15:00,64.3,60.7,29.25,SSW,193,10.0,21.0,88,0.00,,,0.10,Wunderground v.1.15,2013-11-01 14:15:00,
2013-11-01 10:20:00,64.3,60.3,29.25,South,175,15.0,15.0,87,0.00,,,0.10,Wunderground v.1.15,2013-11-01 14:20:00,
2013-11-01 10:25:00,64.3,60.3,29.25,SE,131,7.0,23.0,87,0.00,,,0.10,Wunderground v.1.15,2013-11-01 14:25:00,
2013-11-01 10:30:00,64.5,60.2,29.25,SSW,195,9.0,14.0,86,0.00,,,0.11,Wunderground v.1.15,2013-11-01 14:30:00,
2013-11-01 10:35:00,64.3,60.0,29.25,SSE,165,17.0,26.0,86,0.00,,,0.11,Wunderground v.1.15,2013-11-01 14:35:00,
2013-11-01 10:40:00,64.3,59.7,29.25,South,184,17.0,21.0,85,0.00,,,0.11,Wunderground v.1.15,2013-11-01 14:40:00,
2013-11-01 10:45:00,64.5,59.9,29.25,SSE,168,22.0,22.0,85,0.00,,,0.11,Wunderground v.1.15,2013-11-01 14:45:00,
2013-11-01 10:50:00,64.7,59.8,29.25,South,183,16.0,24.0,84,0.00,,,0.11,Wunderground v.1.15,2013-11-01 14:50:00,
2013-11-01 10:55:00,64.5,59.6,29.25,SSW,200,19.0,24.0,84,0.00,,,0.11,Wunderground v.1.15,2013-11-01 14:55:00,
2013-11-01 11:00:00,64.5,59.6,29.26,SSE,151,16.0,18.0,84,0.00,,,0.11,Wunderground v.1.15,2013-11-01 15:00:00,
2013-11-01 11:05:00,64.3,59.0,29.26,SE,141,10.0,26.0,83,0.00,,,0.11,Wunderground v.1.15,2013-11-01 15:05:00,
2013-11-01 11:10:00,64.0,58.4,29.26,South,186,25.0,25.0,82,0.00,,,0.11,Wunderground v.1.15,2013-11-01 15:10:00,
2013-11-01 11:15:00,64.0,58.1,29.24,South,180,12.0,27.0,81,0.00,,,0.11,Wunderground v.1.15,2013-11-01 15:15:00,
2013-11-01 11:20:00,64.0,58.4,29.24,South,182,11.0,20.0,82,0.00,,,0.11,Wunderground v.1.15,2013-11-01 15:20:00,
2013-11-01 11:25:00,63.9,58.3,29.24,South,186,13.0,28.0,82,0.00,,,0.11,Wunderground v.1.15,2013-11-01 15:25:00,
2013-11-01 11:30:00,64.0,58.1,29.25,South,174,19.0,25.0,81,0.00,,,0.11,Wunderground v.1.15,2013-11-01 15:30:00,
2013-11-01 11:35:00,63.9,57.6,29.25,SSE,166,17.0,27.0,80,0.00,,,0.11,Wunderground v.1.15,2013-11-01 15:35:00,
2013-11-01 11:40:00,63.7,57.1,29.25,South,180,12.0,16.0,79,0.00,,,0.11,Wunderground v.1.15,2013-11-01 15:40:00,
2013-11-01 11:45:00,63.4,56.8,29.26,SSW,194,15.0,24.0,79,0.00,,,0.11,Wunderground v.1.15,2013-11-01 15:45:00,
2013-11-01 11:50:00,63.2,56.2,29.26,South,188,15.0,20.0,78,0.00,,,0.11,Wunderground v.1.15,2013-11-01 15:50:00,
2013-11-01 11:55:00,63.1,56.1,29.26,South,175,17.0,26.0,78,0.00,,,0.11,Wunderground v.1.15,2013-11-01 15:55:00,
2013-11-01 12:00:00,63.1,55.8,29.27,South,185,13.0,18.0,77,0.00,,,0.11,Wunderground v.1.15,2013-11-01 16:00:00,
2013-11-01 12:06:00,62.9,55.6,29.27,SSE,157,22.0,22.0,77,0.00,,,0.11,Wunderground v.1.15,2013-11-01 16:06:00,
2013-11-01 12:11:00,62.9,54.9,29.27,South,175,15.0,19.0,75,0.00,,,0.11,Wunderground v.1.15,2013-11-01 16:11:00,
2013-11-01 12:16:00,63.1,55.0,29.26,SSW,194,26.0,26.0,75,0.00,,,0.11,Wunderground v.1.15,2013-11-01 16:16:00,
2013-11-01 12:21:00,63.1,55.0,29.26,SSW,200,15.0,23.0,75,0.00,,,0.11,Wunderground v.1.15,2013-11-01 16:21:00,
2013-11-01 12:26:00,63.4,55.3,29.26,South,184,21.0,29.0,75,0.00,,,0.11,Wunderground v.1.15,2013-11-01 16:26:00,
2013-11-01 12:31:00,63.5,55.4,29.26,South,182,13.0,18.0,75,0.00,,,0.11,Wunderground v.1.15,2013-11-01 16:31:00,
2013-11-01 12:36:00,63.9,55.4,29.26,South,180,12.0,25.0,74,0.00,,,0.11,Wunderground v.1.15,2013-11-01 16:36:00,
2013-11-01 12:41:00,64.3,55.5,29.26,SSE,157,15.0,20.0,73,0.00,,,0.11,Wunderground v.1.15,2013-11-01 16:41:00,
2013-11-01 12:46:00,64.2,55.0,29.25,SSW,192,11.0,23.0,72,0.00,,,0.11,Wunderground v.1.15,2013-11-01 16:46:00,
2013-11-01 12:51:00,64.3,55.5,29.25,SE,143,13.0,18.0,73,0.00,,,0.11,Wunderground v.1.15,2013-11-01 16:51:00,
2013-11-01 12:56:00,64.7,55.5,29.25,SSE,161,21.0,24.0,72,0.00,,,0.11,Wunderground v.1.15,2013-11-01 16:56:00,
2013-11-01 13:01:00,64.8,54.8,29.25,South,178,13.0,19.0,70,0.00,,,0.11,Wunderground v.1.15,2013-11-01 17:01:00,
2013-11-01 13:06:00,65.6,55.2,29.25,South,169,24.0,25.0,69,0.00,,,0.11,Wunderground v.1.15,2013-11-01 17:06:00,
2013-11-01 13:11:00,66.0,55.5,29.25,South,188,24.0,33.0,69,0.00,,,0.11,Wunderground v.1.15,2013-11-01 17:11:00,
2013-11-01 13:16:00,66.3,55.4,29.25,South,188,13.0,33.0,68,0.00,,,0.11,Wunderground v.1.15,2013-11-01 17:16:00,
2013-11-01 13:21:00,66.4,55.1,29.25,South,175,16.0,22.0,67,0.00,,,0.11,Wunderground v.1.15,2013-11-01 17:21:00,
2013-11-01 13:26:00,66.6,54.9,29.25,South,184,11.0,25.0,66,0.00,,,0.11,Wunderground v.1.15,2013-11-01 17:26:00,
2013-11-01 13:31:00,66.4,53.8,29.25,SW,219,11.0,22.0,64,0.00,,,0.11,Wunderground v.1.15,2013-11-01 17:31:00,
2013-11-01 13:37:00,66.1,54.0,29.25,SSE,153,17.0,25.0,65,0.00,,,0.11,Wunderground v.1.15,2013-11-01 17:37:00,
2013-11-01 13:42:00,66.1,54.4,29.25,South,183,19.0,22.0,66,0.00,,,0.11,Wunderground v.1.15,2013-11-01 17:42:00,
2013-11-01 13:47:00,66.3,54.6,29.25,South,183,15.0,23.0,66,0.00,,,0.11,Wunderground v.1.15,2013-11-01 17:47:00,
2013-11-01 13:52:00,66.8,55.5,29.25,SSE,162,10.0,15.0,67,0.00,,,0.11,Wunderground v.1.15,2013-11-01 17:52:00,
2013-11-01 13:57:00,66.3,54.2,29.25,South,188,12.0,25.0,65,0.00,,,0.11,Wunderground v.1.15,2013-11-01 17:57:00,
2013-11-01 14:02:00,66.3,54.6,29.25,SSE,161,12.0,17.0,66,0.00,,,0.11,Wunderground v.1.15,2013-11-01 18:02:00,
2013-11-01 14:07:00,66.8,54.7,29.25,South,177,14.0,21.0,65,0.00,,,0.11,Wunderground v.1.15,2013-11-01 18:07:00,
2013-11-01 14:12:00,67.3,54.7,29.25,South,176,9.0,20.0,64,0.00,,,0.11,Wunderground v.1.15,2013-11-01 18:12:00,
2013-11-01 14:17:00,67.4,54.8,29.25,SSE,163,19.0,22.0,64,0.00,,,0.11,Wunderground v.1.15,2013-11-01 18:17:00,
2013-11-01 14:22:00,67.6,54.6,29.25,South,179,21.0,21.0,63,0.00,,,0.11,Wunderground v.1.15,2013-11-01 18:22:00,
2013-11-01 14:27:00,67.6,53.2,29.25,SSE,165,14.0,21.0,60,0.00,,,0.11,Wunderground v.1.15,2013-11-01 18:27:00,
2013-11-01 14:32:00,67.9,52.1,29.25,SSE,164,18.0,27.0,57,0.00,,,0.11,Wunderground v.1.15,2013-11-01 18:32:00,
2013-11-01 14:38:00,68.1,52.3,29.25,SSW,196,10.0,27.0,57,0.00,,,0.11,Wunderground v.1.15,2013-11-01 18:38:00,
2013-11-01 14:43:00,68.6,51.3,29.25,SSW,205,6.0,17.0,54,0.00,,,0.11,Wunderground v.1.15,2013-11-01 18:43:00,
2013-11-01 14:48:00,69.1,46.9,29.25,SW,233,14.0,18.0,45,0.00,,,0.11,Wunderground v.1.15,2013-11-01 18:48:00,
2013-11-01 14:53:00,69.4,44.0,29.25,South,186,15.0,26.0,40,0.00,,,0.11,Wunderground v.1.15,2013-11-01 18:53:00,
2013-11-01 14:58:00,69.4,43.4,29.25,SW,218,16.0,26.0,39,0.00,,,0.11,Wunderground v.1.15,2013-11-01 18:58:00,
2013-11-01 15:03:00,69.4,42.0,29.27,SW,215,9.0,29.0,37,0.00,,,0.11,Wunderground v.1.15,2013-11-01 19:03:00,
2013-11-01 15:08:00,69.4,41.3,29.27,SSW,213,12.0,29.0,36,0.00,,,0.11,Wunderground v.1.15,2013-11-01 19:08:00,
2013-11-01 15:13:00,69.3,41.2,29.27,SSW,207,12.0,20.0,36,0.00,,,0.11,Wunderground v.1.15,2013-11-01 19:13:00,
2013-11-01 15:18:00,69.4,40.5,29.28,WSW,243,19.0,22.0,35,0.00,,,0.11,Wunderground v.1.15,2013-11-01 19:18:00,
2013-11-01 15:23:00,69.1,40.3,29.28,SSW,202,11.0,24.0,35,0.00,,,0.11,Wunderground v.1.15,2013-11-01 19:23:00,
2013-11-01 15:28:00,68.9,40.1,29.28,SW,232,15.0,30.0,35,0.00,,,0.11,Wunderground v.1.15,2013-11-01 19:28:00,
2013-11-01 15:33:00,68.9,41.5,29.28,SW,216,10.0,16.0,37,0.00,,,0.11,Wunderground v.1.15,2013-11-01 19:33:00,
2013-11-01 15:38:00,68.9,41.5,29.28,SSW,192,12.0,22.0,37,0.00,,,0.11,Wunderground v.1.15,2013-11-01 19:38:00,
2013-11-01 15:43:00,68.8,41.5,29.28,South,186,15.0,19.0,37,0.00,,,0.11,Wunderground v.1.15,2013-11-01 19:43:00,
2013-11-01 15:48:00,68.4,42.5,29.29,SSW,196,6.0,19.0,39,0.00,,,0.11,Wunderground v.1.15,2013-11-01 19:48:00,
2013-11-01 15:53:00,68.6,43.3,29.29,SSW,200,13.0,19.0,40,0.00,,,0.11,Wunderground v.1.15,2013-11-01 19:53:00,
2013-11-01 15:58:00,68.3,44.3,29.29,South,187,11.0,21.0,42,0.00,,,0.11,Wunderground v.1.15,2013-11-01 19:58:00,
2013-11-01 16:03:00,67.9,44.6,29.30,SW,231,20.0,20.0,43,0.00,,,0.11,Wunderground v.1.15,2013-11-01 20:03:00,
2013-11-01 16:08:00,68.1,44.7,29.30,SSW,208,9.0,20.0,43,0.00,,,0.11,Wunderground v.1.15,2013-11-01 20:08:00,
2013-11-01 16:13:00,67.9,44.0,29.30,South,186,14.0,19.0,42,0.00,,,0.11,Wunderground v.1.15,2013-11-01 20:13:00,
2013-11-01 16:18:00,67.8,43.2,29.31,SW,236,26.0,26.0,41,0.00,,,0.11,Wunderground v.1.15,2013-11-01 20:18:00,
2013-11-01 16:23:00,68.3,43.0,29.31,SSW,205,18.0,25.0,40,0.00,,,0.11,Wunderground v.1.15,2013-11-01 20:23:00,
2013-11-01 16:28:00,68.3,43.7,29.31,SW,221,18.0,25.0,41,0.00,,,0.11,Wunderground v.1.15,2013-11-01 20:28:00,
2013-11-01 16:33:00,68.3,44.3,29.33,SSW,202,6.0,18.0,42,0.00,,,0.11,Wunderground v.1.15,2013-11-01 20:33:00,
2013-11-01 16:38:00,68.3,43.0,29.33,SW,231,14.0,18.0,40,0.00,,,0.11,Wunderground v.1.15,2013-11-01 20:38:00,
2013-11-01 16:43:00,68.1,43.5,29.34,WSW,242,15.0,20.0,41,0.00,,,0.11,Wunderground v.1.15,2013-11-01 20:43:00,
2013-11-01 16:48:00,67.9,40.7,29.34,WSW,241,13.0,28.0,37,0.00,,,0.11,Wunderground v.1.15,2013-11-01 20:48:00,
2013-11-01 16:53:00,67.6,43.1,29.34,SSW,201,12.0,23.0,41,0.00,,,0.11,Wunderground v.1.15,2013-11-01 20:53:00,
2013-11-01 16:58:00,67.4,42.9,29.36,WSW,238,11.0,26.0,41,0.00,,,0.11,Wunderground v.1.15,2013-11-01 20:58:00,
2013-11-01 17:03:00,66.9,42.4,29.36,SSW,202,6.0,20.0,41,0.00,,,0.11,Wunderground v.1.15,2013-11-01 21:03:00,
2013-11-01 17:08:00,66.3,41.9,29.36,WSW,246,16.0,24.0,41,0.00,,,0.11,Wunderground v.1.15,2013-11-01 21:08:00,
2013-11-01 17:13:00,65.8,42.7,29.39,SW,228,4.0,24.0,43,0.00,,,0.11,Wunderground v.1.15,2013-11-01 21:13:00,
2013-11-01 17:18:00,65.3,42.8,29.39,SW,233,3.0,24.0,44,0.00,,,0.11,Wunderground v.1.15,2013-11-01 21:18:00,
2013-11-01 17:24:00,65.2,42.1,29.39,SW,232,16.0,23.0,43,0.00,,,0.11,Wunderground v.1.15,2013-11-01 21:24:00,
2013-11-01 17:29:00,64.8,42.9,29.40,SW,221,14.0,23.0,45,0.00,,,0.11,Wunderground v.1.15,2013-11-01 21:29:00,
2013-11-01 17:34:00,64.5,43.3,29.40,SSW,211,5.0,23.0,46,0.00,,,0.11,Wunderground v.1.15,2013-11-01 21:34:00,
2013-11-01 17:39:00,64.2,43.0,29.40,SW,230,7.0,23.0,46,0.00,,,0.11,Wunderground v.1.15,2013-11-01 21:39:00,
2013-11-01 17:44:00,63.7,43.1,29.42,SW,216,11.0,17.0,47,0.00,,,0.11,Wunderground v.1.15,2013-11-01 21:44:00,
2013-11-01 17:49:00,63.4,43.4,29.42,SW,234,10.0,17.0,48,0.00,,,0.11,Wunderground v.1.15,2013-11-01 21:49:00,
2013-11-01 17:54:00,63.1,42.0,29.42,SW,230,11.0,16.0,46,0.00,,,0.11,Wunderground v.1.15,2013-11-01 21:54:00,
2013-11-01 17:59:00,62.9,42.9,29.43,SW,234,10.0,18.0,48,0.00,,,0.11,Wunderground v.1.15,2013-11-01 21:59:00,
2013-11-01 18:04:00,62.4,43.0,29.43,SW,217,7.0,19.0,49,0.00,,,0.11,Wunderground v.1.15,2013-11-01 22:04:00,
2013-11-01 18:09:00,62.1,43.2,29.43,SW,236,8.0,19.0,50,0.00,,,0.11,Wunderground v.1.15,2013-11-01 22:09:00,
2013-11-01 18:14:00,61.8,42.4,29.45,SW,232,9.0,13.0,49,0.00,,,0.11,Wunderground v.1.15,2013-11-01 22:14:00,
2013-11-01 18:19:00,61.6,43.3,29.45,WSW,243,6.0,13.0,51,0.00,,,0.11,Wunderground v.1.15,2013-11-01 22:19:00,
2013-11-01 18:24:00,61.2,42.9,29.45,SW,231,3.0,11.0,51,0.00,,,0.11,Wunderground v.1.15,2013-11-01 22:24:00,
2013-11-01 18:29:00,60.9,42.1,29.46,South,191,8.0,15.0,50,0.00,,,0.11,Wunderground v.1.15,2013-11-01 22:29:00,
2013-11-01 18:34:00,60.5,42.3,29.46,SW,219,6.0,17.0,51,0.00,,,0.11,Wunderground v.1.15,2013-11-01 22:34:00,
2013-11-01 18:39:00,60.5,41.8,29.46,SW,219,8.0,17.0,50,0.00,,,0.11,Wunderground v.1.15,2013-11-01 22:39:00,
2013-11-01 18:44:00,60.2,41.5,29.47,WSW,246,4.0,18.0,50,0.00,,,0.11,Wunderground v.1.15,2013-11-01 22:44:00,
2013-11-01 18:49:00,60.2,41.0,29.47,SSW,198,10.0,18.0,49,0.00,,,0.11,Wunderground v.1.15,2013-11-01 22:49:00,
2013-11-01 18:54:00,59.9,41.2,29.47,SSW,199,9.0,16.0,50,0.00,,,0.11,Wunderground v.1.15,2013-11-01 22:54:00,
2013-11-01 18:59:00,59.9,41.2,29.48,SW,221,21.0,24.0,50,0.00,,,0.11,Wunderground v.1.15,2013-11-01 22:59:00,
2013-11-01 19:04:00,59.8,41.1,29.48,SW,218,4.0,17.0,50,0.00,,,0.11,Wunderground v.1.15,2013-11-01 23:04:00,
2013-11-01 19:09:00,59.8,41.1,29.48,SW,227,16.0,18.0,50,0.00,,,0.11,Wunderground v.1.15,2013-11-01 23:09:00,
2013-11-01 19:14:00,59.6,40.9,29.48,SW,219,8.0,20.0,50,0.00,,,0.11,Wunderground v.1.15,2013-11-01 23:14:00,
2013-11-01 19:19:00,59.3,41.2,29.48,WSW,244,10.0,20.0,51,0.00,,,0.11,Wunderground v.1.15,2013-11-01 23:19:00,
2013-11-01 19:24:00,59.2,41.1,29.48,WSW,238,5.0,13.0,51,0.00,,,0.11,Wunderground v.1.15,2013-11-01 23:24:00,
2013-11-01 19:29:00,59.5,41.3,29.50,WSW,249,10.0,15.0,51,0.00,,,0.11,Wunderground v.1.15,2013-11-01 23:29:00,
2013-11-01 19:34:00,59.5,40.8,29.50,WSW,254,11.0,16.0,50,0.00,,,0.11,Wunderground v.1.15,2013-11-01 23:34:00,
2013-11-01 19:39:00,59.8,40.1,29.50,SW,231,11.0,19.0,48,0.00,,,0.11,Wunderground v.1.15,2013-11-01 23:39:00,
2013-11-01 19:44:00,59.8,41.1,29.51,WSW,246,5.0,24.0,50,0.00,,,0.11,Wunderground v.1.15,2013-11-01 23:44:00,
2013-11-01 19:49:00,59.8,41.1,29.51,SW,227,6.0,24.0,50,0.00,,,0.11,Wunderground v.1.15,2013-11-01 23:49:00,
2013-11-01 19:54:00,59.6,40.9,29.51,WSW,245,14.0,14.0,50,0.00,,,0.11,Wunderground v.1.15,2013-11-01 23:54:00,
2013-11-01 19:59:00,59.3,41.2,29.53,SW,234,12.0,15.0,51,0.00,,,0.11,Wunderground v.1.15,2013-11-01 23:59:00,
2013-11-01 20:04:00,59.0,40.9,29.53,South,183,12.0,12.0,51,0.00,,,0.11,Wunderground v.1.15,2013-11-02 00:04:00,
2013-11-01 20:09:00,59.3,40.7,29.53,SW,232,6.0,16.0,50,0.00,,,0.11,Wunderground v.1.15,2013-11-02 00:09:00,
2013-11-01 20:14:00,59.3,40.7,29.53,SSW,205,7.0,11.0,50,0.00,,,0.11,Wunderground v.1.15,2013-11-02 00:14:00,
2013-11-01 20:19:00,59.2,41.6,29.53,South,179,4.0,12.0,52,0.00,,,0.11,Wunderground v.1.15,2013-11-02 00:19:00,
2013-11-01 20:24:00,59.2,41.1,29.53,SSW,208,3.0,7.0,51,0.00,,,0.11,Wunderground v.1.15,2013-11-02 00:24:00,
2013-11-01 20:29:00,59.0,40.9,29.54,SW,217,1.0,7.0,51,0.00,,,0.11,Wunderground v.1.15,2013-11-02 00:29:00,
2013-11-01 20:34:00,58.7,41.1,29.54,SSE,167,8.0,11.0,52,0.00,,,0.11,Wunderground v.1.15,2013-11-02 00:34:00,
2013-11-01 20:39:00,58.7,41.6,29.54,South,169,11.0,11.0,53,0.00,,,0.11,Wunderground v.1.15,2013-11-02 00:39:00,
2013-11-01 20:44:00,58.6,41.5,29.56,South,184,4.0,11.0,53,0.00,,,0.11,Wunderground v.1.15,2013-11-02 00:44:00,
2013-11-01 20:49:00,58.6,42.0,29.56,South,170,9.0,11.0,54,0.00,,,0.11,Wunderground v.1.15,2013-11-02 00:49:00,
2013-11-01 20:54:00,58.6,42.0,29.56,SSE,163,6.0,9.0,54,0.00,,,0.11,Wunderground v.1.15,2013-11-02 00:54:00,
2013-11-01 20:59:00,58.3,42.2,29.56,SSE,167,3.0,9.0,55,0.00,,,0.11,Wunderground v.1.15,2013-11-02 00:59:00,
2013-11-01 21:04:00,58.1,42.0,29.56,SSE,168,2.0,9.0,55,0.00,,,0.11,Wunderground v.1.15,2013-11-02 01:04:00,
2013-11-01 21:09:00,58.0,42.4,29.56,South,176,7.0,12.0,56,0.00,,,0.11,Wunderground v.1.15,2013-11-02 01:09:00,
2013-11-01 21:14:00,57.8,42.2,29.56,South,178,5.0,11.0,56,0.00,,,0.11,Wunderground v.1.15,2013-11-02 01:14:00,
2013-11-01 21:19:00,57.8,42.2,29.56,South,182,3.0,11.0,56,0.00,,,0.11,Wunderground v.1.15,2013-11-02 01:19:00,
2013-11-01 21:24:00,57.5,41.9,29.56,South,190,4.0,7.0,56,0.00,,,0.11,Wunderground v.1.15,2013-11-02 01:24:00,
2013-11-01 21:29:00,57.2,42.1,29.57,SSW,192,7.0,9.0,57,0.00,,,0.11,Wunderground v.1.15,2013-11-02 01:29:00,
2013-11-01 21:34:00,57.0,42.4,29.57,SSW,210,4.0,10.0,58,0.00,,,0.11,Wunderground v.1.15,2013-11-02 01:34:00,
2013-11-01 21:39:00,56.7,42.1,29.57,SSW,213,2.0,10.0,58,0.00,,,0.11,Wunderground v.1.15,2013-11-02 01:39:00,
2013-11-01 21:44:00,56.5,41.9,29.57,SSW,208,0.0,6.0,58,0.00,,,0.11,Wunderground v.1.15,2013-11-02 01:44:00,
2013-11-01 21:49:00,56.5,41.9,29.57,SSW,208,3.0,6.0,58,0.00,,,0.11,Wunderground v.1.15,2013-11-02 01:49:00,
2013-11-01 21:54:00,56.5,42.3,29.57,SSW,205,5.0,6.0,59,0.00,,,0.11,Wunderground v.1.15,2013-11-02 01:54:00,
2013-11-01 21:59:00,56.0,42.3,29.58,SSW,205,3.0,6.0,60,0.00,,,0.11,Wunderground v.1.15,2013-11-02 01:59:00,
2013-11-01 22:04:00,55.9,42.2,29.58,SSW,200,3.0,7.0,60,0.00,,,0.11,Wunderground v.1.15,2013-11-02 02:04:00,
2013-11-01 22:09:00,55.6,42.4,29.58,SSW,194,4.0,7.0,61,0.00,,,0.11,Wunderground v.1.15,2013-11-02 02:09:00,
2013-11-01 22:14:00,55.6,42.4,29.59,South,170,3.0,7.0,61,0.00,,,0.11,Wunderground v.1.15,2013-11-02 02:14:00,
2013-11-01 22:19:00,55.6,42.4,29.59,South,171,3.0,7.0,61,0.00,,,0.11,Wunderground v.1.15,2013-11-02 02:19:00,
2013-11-01 22:24:00,55.7,42.5,29.59,South,173,5.0,10.0,61,0.00,,,0.11,Wunderground v.1.15,2013-11-02 02:24:00,
2013-11-01 22:29:00,55.7,42.5,29.59,South,173,4.0,10.0,61,0.00,,,0.11,Wunderground v.1.15,2013-11-02 02:29:00,
2013-11-01 22:34:00,55.6,42.8,29.59,South,173,3.0,6.0,62,0.00,,,0.11,Wunderground v.1.15,2013-11-02 02:34:00,
2013-11-01 22:39:00,55.3,42.9,29.59,South,173,3.0,6.0,63,0.00,,,0.11,Wunderground v.1.15,2013-11-02 02:39:00,
2013-11-01 22:44:00,55.1,43.1,29.59,South,177,0.0,6.0,64,0.00,,,0.11,Wunderground v.1.15,2013-11-02 02:44:00,
2013-11-01 22:49:00,55.0,43.0,29.59,South,177,3.0,6.0,64,0.00,,,0.11,Wunderground v.1.15,2013-11-02 02:49:00,
2013-11-01 22:54:00,54.7,43.2,29.59,South,177,0.0,3.0,65,0.00,,,0.11,Wunderground v.1.15,2013-11-02 02:54:00,
2013-11-01 23:00:00,54.4,43.3,29.60,South,177,0.0,1.0,66,0.00,,,0.11,Wunderground v.1.15,2013-11-02 03:00:00,
2013-11-01 23:05:00,54.2,43.1,29.60,South,177,1.0,3.0,66,0.00,,,0.11,Wunderground v.1.15,2013-11-02 03:05:00,
2013-11-01 23:10:00,54.2,43.1,29.60,South,174,2.0,3.0,66,0.00,,,0.11,Wunderground v.1.15,2013-11-02 03:10:00,
2013-11-01 23:15:00,54.5,43.0,29.60,South,174,1.0,6.0,65,0.00,,,0.11,Wunderground v.1.15,2013-11-02 03:15:00,
2013-11-01 23:20:00,54.7,43.2,29.60,South,174,2.0,4.0,65,0.00,,,0.11,Wunderground v.1.15,2013-11-02 03:20:00,
2013-11-01 23:26:00,54.8,43.3,29.60,South,174,2.0,5.0,65,0.00,,,0.11,Wunderground v.1.15,2013-11-02 03:26:00,
2013-11-01 23:31:00,55.0,43.4,29.61,South,174,2.0,5.0,65,0.00,,,0.11,Wunderground v.1.15,2013-11-02 03:31:00,
2013-11-01 23:36:00,55.0,43.0,29.61,South,177,5.0,11.0,64,0.00,,,0.11,Wunderground v.1.15,2013-11-02 03:36:00,
2013-11-01 23:41:00,55.0,43.0,29.61,South,178,4.0,6.0,64,0.00,,,0.11,Wunderground v.1.15,2013-11-02 03:41:00,
2013-11-01 23:46:00,55.1,43.1,29.61,South,188,8.0,8.0,64,0.00,,,0.11,Wunderground v.1.15,2013-11-02 03:46:00,
2013-11-01 23:52:00,55.4,43.0,29.61,South,188,6.0,10.0,63,0.00,,,0.11,Wunderground v.1.15,2013-11-02 03:52:00,
2013-11-01 23:57:00,55.7,43.3,29.61,South,188,4.0,10.0,63,0.00,,,0.11,Wunderground v.1.15,2013-11-02 03:57:00,